QUETZSAT 1

Last updated on Sun Apr 12 2026 00:02:52 GMT+0000 (Coordinated Universal Time)

1 37826U 11054A 26100.79234815 -.00000240 00000+0 00000+0 0 9990 2 37826 0.0091 245.1050 0002546 153.4224 8.7431 1.00274599 49196
UTC large
Height (km)
Speed (km/s)
/
Latitude / Longitude
Inclination (degrees)
Orbital Period (minutes)
Azimuth
Elevation
Range (km)
Doppler Factor

Next 0 passes for location: London (51.5072 / 0.1276)

Sorry there are no passes over London.
QUETZSAT 1